Content
SEND FEEDBACK

Daily
Averages
Monthly
Summary
United States of America

COALVILLE, UTAH


Home > North America > United States > Utah
Elevation: 6584 feet     Latitude: 40 56N     Longitude: 111 10W

WEATHER
 
SELECT A DAY
Number of Records: 176,214;   Date Range: 1/2/95 - 8/12/14
 
SHARE

PRINT THIS DATA

[ ← Previous Day ]
WEATHER ALMANAC - JANUARY 31, 2013
[ Next Day → ]
[ °C ]   °F
Weather ElementAverageHighLow
Temperature28.2 °F30.9 °F (1:53 pm)24.8 °F (1:45 am)
Dewpoint21.6 °F23 °F (11:53 am)19.4 °F (1:45 am)
Humidity76.4 %84 % (6:53 am)69 % (1:53 pm)
Barometer30.27 in30.32 in (9:53 am)30.17 in (1:45 am)
Wind Speed14.9 mph21.9 mph (12:53 pm)
Wind Gust26.5 mph (2:53 pm)
Weather ElementAverage
Visibility10 mi
Wind DirectionWSW (247.9 °)

Weather ElementTotal
Precipitation---
Heating Degree Days37.2 (Base 65)
Averaged from 28 records on January 31, 2013
WEATHER CONDITIONS BREAKOUT
WIND DIRECTION BREAKOUT
WEATHER BY HOUR - JANUARY 31, 2013
[ °C ]   °F
Local TimeTemperatureDewpointHumidityBarometerVisibilityWind DirectionWind SpeedGust SpeedPrecipitationEventsConditions
1:45 AM24.8 °F19.4 °F80 %30.17 in10.0 miSW (220°)5.8 mphMostly Cloudy
1:53 AM26.1 °F19.9 °F78 %30.23 in10.0 miSW (230°)5.8 mphMostly Cloudy
2:53 AM27.0 °F21.0 °F78 %30.22 in10.0 miWest (260°)16.1 mphOvercast
3:53 AM28.0 °F19.9 °F72 %30.22 in10.0 miWest (260°)19.6 mph23.0 mphOvercast
4:53 AM28.0 °F19.9 °F72 %30.24 in10.0 miWSW (250°)17.3 mphOvercast
5:53 AM27.0 °F21.0 °F78 %30.28 in10.0 miSW (230°)13.8 mphOvercast
6:53 AM26.1 °F21.9 °F84 %30.28 in10.0 miWSW (240°)9.2 mphOvercast
7:53 AM26.1 °F21.0 °F81 %30.29 in10.0 miWSW (250°)20.7 mphOvercast
8:53 AM27.0 °F21.9 °F81 %30.31 in10.0 miWSW (250°)15.0 mphOvercast
9:53 AM28.0 °F21.9 °F78 %30.32 in10.0 miWest (260°)18.4 mphOvercast
10:53 AM28.9 °F21.9 °F75 %30.32 in10.0 miWest (260°)17.3 mphOvercast
11:53 AM30.0 °F23.0 °F75 %30.30 in10.0 miWSW (250°)15.0 mphOvercast
12:40 PM30.2 °F23.0 °F75 %30.25 in10.0 miWest (260°)17.3 mphMostly Cloudy
12:53 PM30.0 °F21.9 °F72 %30.29 in10.0 miWSW (250°)21.9 mphMostly Cloudy
1:53 PM30.9 °F21.9 °F69 %30.27 in10.0 miWSW (250°)19.6 mph23.0 mphOvercast
2:26 PM30.2 °F21.2 °F69 %30.22 in10.0 miWSW (240°)21.9 mphMostly Cloudy
2:53 PM30.0 °F21.9 °F72 %30.27 in10.0 miWSW (250°)17.3 mph26.5 mphMostly Cloudy
3:53 PM28.9 °F21.9 °F75 %30.28 in10.0 miWest (260°)13.8 mphOvercast
4:37 PM28.4 °F21.2 °F74 %30.24 in10.0 miWest (260°)12.7 mphOvercast
4:53 PM28.9 °F21.9 °F75 %30.28 in10.0 miWest (260°)11.5 mphOvercast
5:20 PM28.4 °F21.2 °F74 %30.24 in10.0 miWest (260°)15.0 mphOvercast
5:53 PM28.0 °F21.9 °F78 %30.28 in10.0 miWest (260°)11.5 mphOvercast
6:33 PM28.4 °F21.2 °F74 %30.24 in10.0 miWSW (250°)16.1 mphOvercast
6:53 PM28.0 °F21.9 °F78 %30.30 in10.0 miSW (230°)12.7 mphOvercast
7:53 PM28.0 °F21.9 °F78 %30.30 in10.0 miSW (220°)16.1 mphOvercast
8:53 PM28.0 °F23.0 °F81 %30.29 in10.0 miWSW (240°)11.5 mphOvercast
10:53 PM28.0 °F23.0 °F81 %30.26 in10.0 miWSW (250°)13.8 mphOvercast
11:53 PM28.0 °F23.0 °F81 %30.26 in10.0 miWSW (240°)9.2 mphOvercast
Hourly data recorded from KEVW, located miles away from Coalville, Utah







STORIES FROM OUR PARTNERS